Location: Unspecified
(0.0000°N, 0.0000°E)
Time: 14:43:17
(UTC+00:00)

PAYLOAD C - Pass Details

Date: 11 June 2023
Orbit: 809 x 823 km, 98.7° (Epoch: 21 September)

Event Time Altitude Azimuth Distance (km) Brightness Sun altitude
Rises 18:18:06 0° 181° (S) 3,352 ? -4.2°
Reaches altitude 10° 18:20:34 10° 188° (S) 2,416 ? -4.8°
Maximum altitude 18:25:34 41° 257° (WSW) 1,163 ? -5.9°
Drops below altitude 10° 18:30:33 10° 327° (NNW) 2,398 ? -7.1°
Sets 18:33:00 0° 334° (NNW) 3,325 ? -7.7°
